Location: Agendoh
(31.0664°N, 8.9343°W)
Time: 07:54:46
(UTC+00:00)

SJ-12 - Pass Details

Date: 06 December 2021
Orbit: 567 x 584 km, 97.7° (Epoch: 24 January)

Event Time Altitude Azimuth Distance (km) Brightness Sun altitude
Rises 05:29:09 0° 11° (N) 2,812 7.4 -23.2°
Reaches altitude 10° 05:31:18 10° 12° (NNE) 1,908 6.5 -22.8°
Maximum altitude 05:35:27 90° 38° (NE) 588 3.8 -21.9°
Drops below altitude 10° 05:39:34 10° 193° (SSW) 1,893 6.6 -21.1°
Sets 05:41:43 0° 193° (SSW) 2,787 7.4 -20.6°
